Starlink 11204

operational
NORAD ID: 60931 Int'l Des: 2024-155 Owner: SPXS Country: US Constellation: starlink
LEOCIRCULAR

关于 Starlink 11204

正在加载描述...

实时位置

正在加载3D地球...

即将过境

高度历史

Altitude vs Time

uPlot chart will show altitude changes over time

两行轨道根数

1 60931U 24155H 25353.46135482 .00000084 00000-0 55524-5 0 9995
2 60931 53.1585 16.5994 0001120 64.4335 295.6799 15.69703514 75809
Epoch: Dec 19, 2025 • Age: 22 hours

当前状态

高度 373.2 km
速度 7.69 km/s
星下点 -38.89°S, 1.98°W
发射日期 Aug 31, 2024
运行时间 1.3 years
类型 internet

技术详情

分类 Payload
质量 960.00 kg
干质量 910.00 kg
总质量 960.00 kg
长度 0.30 m
直径 4.10 m
跨度 29.00 m
形状 Box + pan
制造商 SPXS
平台类型 Starlink V2MD
阶段状态 In Orbit
所有者/国家 SPXS/US

大型星座

Loading constellations...